Regional Weather Roundup
Issued by NWS Newport/Morehead, NC

Current Version | Previous Version | Text Only | Print | Product List | Glossary Off
Versions: 1 2 3 4 5 6 7 8 9 10 11 12 13 14 15 16 17 18 19 20 21 22 23 24 25 26 27 28 29 30 31 32 33 34 35 36 37 38 39 40 41 42 43 44 45 46 47 48 49 50
000 ASUS42 KMHX 240414 RWRMHX WEATHER ROUNDUP FOR EASTERN NORTH CAROLINA NATIONAL WEATHER SERVICE NEWPORT/MOREHEAD CITY NC 1200 AM EDT TUE APR 24 2018 NOTE: "FAIR" INDICATES FEW OR NO CLOUDS BELOW 12,000 FEET WITH NO SIGNIFICANT WEATHER AND/OR OBSTRUCTIONS TO VISIBILITY NCZ015>017-031-032-045>047-102-103-240500- NORTH COAST CITY SKY/WX TMP DP RH WIND PRES REMARKS EDENTON MOCLDY 61 53 73 E10 30.27F ELIZABETH CITY FAIR 58 51 78 E10 30.29F KITTY HAWK FAIR 55 48 75 E5 30.28F MANTEO FAIR 60 47 62 SE13 30.29F $$ NCZ045>047-081-094-103-104-240500- CENTRAL COAST CITY SKY/WX TMP DP RH WIND PRES REMARKS FRISCO FAIR 65 54 67 SE21 30.26F $$ NCZ095-097-098-100-101-240500- SOUTHERN COAST CITY SKY/WX TMP DP RH WIND PRES REMARKS BEAUFORT FAIR 65 56 72 SE13G24 30.19F CEDAR ISLAND NOT AVBL JACKSONVILLE MOCLDY 64 57 78 E20G30 30.15F PINEY ISLAND NOT AVBL WILMINGTON CLOUDY 65 58 78 E16G28 30.13F $$ NCZ011>013-027>030-043-044-078>080-089-090>093-098-240500- COASTAL PLAIN CITY SKY/WX TMP DP RH WIND PRES REMARKS AHOSKIE CLOUDY 57 46 66 E5 30.27F CLINTON CLOUDY 60 58 92 E8 30.14F ELIZABETHTOWN RAIN 62 58 87 MISG 30.11F GOLDSBORO MOCLDY 61 52 72 E9 30.16F GREENVILLE FAIR 61 46 59 E12 30.22F HAVELOCK NOT AVBL KENANSVILLE CLOUDY 61 55 82 E6 30.17F KINSTON CLOUDY 62 52 70 E8 30.20S NEW BERN FAIR 63 54 72 E9 30.21F RICHLANDS LGT RAIN 62 56 80 E9 30.17F ROCKY MOUNT LGT RAIN 60 46 59 E8 30.21F WASHINGTON CLOUDY 60 49 65 E12 30.22F WHITEVILLE LGT RAIN 62 60 94 E12 30.08F $$ AMZ130-135-150-152-154-156-158-170-250-252-270-ANZ085-086-088-633-658-670-240500- MARINE OBSERVATIONS STATION/POSITION TIME TEMP WIND PRES WAVE SWELL AIR SEA DIR/SP/G HT/PER HT/PER (UTC) (F) (DEG/KT/KT) (MB) (FT/S) (FT/S) CHESAPEAKE LIGHT NOT AVBL 64 E VA BEACH 0350 54 50 100/ 10/ 12 1027.7 4/ 5 3/ 5 DUCK 0348 55 54 90/ 14/ 15 1025.3 2 E DUCK 0400 53 N/A 3/ 6 OREGON INLET 0342 57 57 90/ 8/ 12 1025.4 13E OREGON INLT 0348 52 N/A 5/ 7 5/ 7 HATTERAS CG 0348 65 62 120/ 12/ 20 1024.2 DIAMOND BUOY 0400 68 73 120/ 23/ 29 1024.5 CAPE LOOKOUT 0400 110/ 21/ 22 1022.5 BEAUFORT LAB 0348 65 63 120/ 17/ 22 1022.5 30 SE NEW RVR IN 0308 66 65 140/ 21/ 27 1021.2 30 SE NEW RVR IN 0400 65 N/A 11/ 8 2/11 27 SE WRIGHTSVLE 0308 67 65 130/ 29/ 41 1020.6 5 SE WRIGHTSVLE 0308 64 61 130/ 19/ 27 1018.0 225 S CAPE HAT 0400 69 72 120/ 23/ 29 1021.9 41 SE CHARLESTON 0350 68 120/ 31/ 43 1014.6 16/10 10/10 $$

USA.gov is the U.S. government's official web portal to all federal, state and local government web resources and services.